Overview Statistics Trail Chart Weather Telemetry Raw packets
 

This is the latest recevied weather packets stored in our database for station/object LU4HH-15. If no packets are shown the sender has not sent any weather packets the latest 10 day(s).

<< 5 6 7 8 9 10 11 >>
Time Temp. Humidity Pressure Rain* Wind** Luminosity Snow
1788529868 16.11° C 40% 1028.2 hPa - - - -
1788528966 16.11° C 40% 1028.4 hPa - - - -
1788528065 15.56° C 40% 1028.4 hPa - - - -
1788527164 15.56° C 40% 1028.3 hPa - - - -
1788526263 15.56° C 41% 1028.3 hPa - - - -
1788525361 15° C 40% 1028.2 hPa - - - -
1788524460 15° C 40% 1028.2 hPa - - - -
1788523559 15° C 39% 1028.3 hPa - - - -
1788522658 15° C 39% 1028 hPa - - - -
1788521750 15° C 39% 1027.9 hPa - - - -
1788520847 15° C 38% 1027.8 hPa - - - -
1788519947 15° C 37% 1027.7 hPa - - - -
1788519045 16.67° C 34% 1027.5 hPa - - - -
1788517337 15° C 36% 1027.2 hPa - - - -
1788516436 15° C 36% 1027.2 hPa - - - -
1788515535 15.56° C 36% 1027 hPa - - - -
1788514659 15° C 37% 1026.8 hPa - - - -
1788513758 15° C 37% 1026.8 hPa - - - -
1788512857 15° C 37% 1026.9 hPa - - - -
1788511956 15° C 38% 1027.1 hPa - - - -
1788511055 15.56° C 38% 1026.9 hPa - - - -
1788510153 15.56° C 38% 1026.9 hPa - - - -
1788509252 15.56° C 39% 1026.9 hPa - - - -
1788508352 15.56° C 40% 1026.9 hPa - - - -
1788507451 15.56° C 40% 1026.9 hPa - - - -

* Rain since midnight (hover to see other rain measurements)
** Current wind speed in m/s (hover to see current wind gust speed)